This is the latest recevied weather packets stored in our database for station/object K6GMW. If no packets are shown the sender has not sent any weather packets the latest 10 day(s).
| Time | Temp. | Humidity | Pressure | Rain* | Wind** | Luminosity | Snow |
|---|---|---|---|---|---|---|---|
| 1788557227 | 37.78° C | 37% | 1013.1 hPa | 0 mm | - | 556 W/m² | - |
| 1788556922 | 37.78° C | 37% | 1013.3 hPa | 0 mm | - | 561 W/m² | - |
| 1788556628 | 37.78° C | 37% | 1013.4 hPa | 0 mm | - | 588 W/m² | - |
| 1788556316 | 38.33° C | 36% | 1013.3 hPa | 0 mm | - | 636 W/m² | - |
| 1788556011 | 38.33° C | 37% | 1013.5 hPa | 0 mm | - | 657 W/m² | - |
| 1788555707 | 37.22° C | 38% | 1013.8 hPa | 0 mm | - | 676 W/m² | - |
| 1788555402 | 36.67° C | 39% | 1013.5 hPa | 0 mm | - | 698 W/m² | - |
| 1788555099 | 36.67° C | 38% | 1013.7 hPa | 0 mm | - | 219 W/m² | - |
| 1788554794 | 37.78° C | 37% | 1013.8 hPa | 0 mm | - | 731 W/m² | - |
| 1788554490 | 37.22° C | 38% | 1014 hPa | 0 mm | - | 740 W/m² | - |
| 1788554186 | 36.67° C | 40% | 1014 hPa | 0 mm | - | 746 W/m² | - |
| 1788553882 | 37.22° C | 39% | 1013.9 hPa | 0 mm | - | 765 W/m² | - |
| 1788553578 | 37.22° C | 40% | 1014 hPa | 0 mm | - | 780 W/m² | - |
| 1788553275 | 38.33° C | 38% | 1014.1 hPa | 0 mm | - | 809 W/m² | - |
| 1788552974 | 37.78° C | 39% | 1014 hPa | 0 mm | - | 830 W/m² | - |
| 1788552669 | 37.22° C | 40% | 1014.3 hPa | 0 mm | - | 837 W/m² | - |
| 1788552368 | 36.11° C | 43% | 1014.2 hPa | 0 mm | - | 893 W/m² | - |
| 1788552064 | 36.67° C | 41% | 1014.4 hPa | 0 mm | - | 914 W/m² | - |
| 1788551762 | 36.67° C | 41% | 1014.5 hPa | 0 mm | - | 545 W/m² | - |
| 1788551456 | 36.67° C | 40% | 1014.6 hPa | 0 mm | - | 915 W/m² | - |
| 1788551156 | 36.11° C | 42% | 1014.6 hPa | 0 mm | - | 898 W/m² | - |
| 1788550851 | 35.56° C | 43% | 1014.6 hPa | 0 mm | - | 883 W/m² | - |
| 1788550545 | 36.11° C | 42% | 1014.8 hPa | 0 mm | - | 173 W/m² | - |
| 1788550242 | 36.11° C | 43% | 1014.8 hPa | 0 mm | - | 882 W/m² | - |
| 1788549941 | 36.11° C | 43% | 1014.9 hPa | 0 mm | - | 883 W/m² | - |
* Rain latest hour (hover to see other rain measurements)
** Current wind speed in m/s (hover to see current wind gust speed)